Location: Newark
(59.4564°N, 26.6917°E)
Time: 05:17:40
(UTC+00:00)

Tiros 1 - Visible Passes

Search period start: 20 November 2019 00:00
Search period end: 30 November 2019 00:00
Orbit: 630 x 664 km, 48.4° (Epoch: 18 November)

Date Brightness Start Highest point End Pass type
(mag) Time Alt. Az. Time Alt. Az. Time Alt. Az.
20 Nov 9.3 15:50:13 10° WSW 15:53:28 19° SSW 15:56:45 10° SSE visible
21 Nov 9.3 14:34:27 10° SW 14:37:55 21° S 14:41:24 10° SE visible
21 Nov 9.6 16:16:19 10° WSW 16:18:59 15° SSW 16:21:40 10° SSE visible
22 Nov 9.5 15:00:13 10° WSW 15:03:30 19° SSW 15:06:48 10° SE visible
22 Nov 9.9 16:43:33 10° SW 16:44:25 10° SSW 16:45:17 10° SSW visible
23 Nov 9.7 15:26:17 10° WSW 15:29:01 16° SSW 15:31:46 10° SSE visible
24 Nov 10.0 15:53:14 10° SW 15:54:27 11° SSW 15:55:41 10° SSW visible
25 Nov 9.8 14:36:15 10° WSW 14:39:04 16° SSW 14:41:52 10° SSE visible
26 Nov 10.1 15:03:01 10° SW 15:04:30 11° SSW 15:06:00 10° S visible
